GFSSGP_850_temp_087.txt.gz
Temp
21 21 20 19 21 21 22 22 22 22 22 21 21 21 22 20 22 22 18 18 17 17 17 17 17 18 18 18 18 18 18 17 17 17 17 17 17 17 17 16 16 15 15 16 16 16 17 16 15
21 20 20 19 21 22 23 22 22 22 21 21 21 20 21 20 18 18 17 18 17 17 17 16 17 17 18 18 18 18 18 18 18 18 17 17 17 17 16 16 16 16 16 17 16 16 16 15 15
20 20 20 20 19 21 23 22 22 21 21 21 20 20 19 19 18 18 18 18 17 17 17 17 17 17 18 18 18 18 17 17 17 17 17 17 17 17 17 17 17 17 17 17 16 16 16 16 15
20 20 19 21 21 21 22 23 21 20 20 21 20 20 19 19 19 19 18 18 17 17 17 17 17 17 17 17 17 17 17 17 17 17 16 16 15 15 16 16 16 16 16 16 16 16 16 16 15
20 20 20 20 21 22 22 21 20 22 22 21 21 20 18 19 19 19 19 19 18 17 17 17 17 17 17 17 17 17 16 16 16 16 14 15 15 14 15 15 15 15 15 15 15 15 15 16 16
20 19 20 20 20 22 22 21 19 21 21 20 21 19 18 19 19 19 18 18 17 17 17 17 17 17 17 17 16 16 16 15 14 14 15 15 15 15 15 15 14 15 15 14 15 15 14 15 15
19 19 20 20 21 21 23 20 21 22 21 21 21 21 18 19 19 18 18 17 17 17 17 17 17 17 17 16 16 16 15 15 15 15 15 15 14 14 14 14 14 14 14 14 14 14 14 14 14
20 19 19 19 21 22 22 20 22 22 21 22 22 21 19 19 18 18 17 17 17 17 17 17 17 16 16 15 15 15 15 15 14 15 15 15 14 14 14 14 14 14 14 14 14 14 14 14 14
19 19 19 21 20 22 19 21 20 22 21 21 22 22 22 20 18 18 17 17 16 17 17 17 17 16 16 15 15 15 15 15 15 15 14 14 14 14 14 14 14 14 14 14 14 14 14 14 14
18 18 19 20 20 21 20 20 20 21 20 20 21 21 21 20 19 18 17 17 17 17 17 16 16 16 15 14 15 15 15 15 15 14 14 14 14 14 14 14 14 14 14 14 14 14 14 14 15
17 19 19 20 20 20 20 19 21 20 19 21 22 22 21 20 18 18 18 18 18 18 17 16 16 15 15 16 16 16 16 15 15 14 14 14 14 14 14 14 14 14 14 14 14 14 14 14 14
17 17 19 21 20 19 19 20 19 19 23 22 23 23 22 20 19 19 18 18 18 18 17 17 16 16 15 16 16 16 15 15 14 14 14 14 14 14 14 13 14 13 13 13 13 14 14 14 14
16 18 18 20 20 20 20 20 21 19 22 22 22 22 23 22 20 19 19 19 19 18 18 17 16 16 15 15 16 15 15 15 14 14 14 14 14 14 13 13 13 13 13 13 13 13 13 13 13
17 18 19 19 19 19 20 19 19 20 21 21 21 21 22 22 21 19 19 19 19 18 18 17 17 16 16 15 16 15 15 14 14 14 13 14 13 13 13 13 13 13 13 13 13 13 13 13 13
16 17 17 17 17 19 19 20 20 20 20 21 19 20 20 20 20 21 21 20 19 19 18 17 17 16 16 16 15 15 15 14 14 14 13 13 13 13 13 13 13 13 13 13 12 12 12 12 12
16 17 17 18 17 18 19 20 20 19 19 17 17 17 18 18 20 20 20 20 19 18 18 17 17 16 16 16 15 15 14 14 14 13 13 13 13 13 13 13 12 12 12 12 12 12 12 11 11
14 17 16 17 17 16 18 18 18 17 18 17 17 18 19 19 19 19 20 20 19 20 19 18 17 16 16 16 14 14 14 14 14 13 13 13 13 12 12 12 12 12 12 12 11 11 11 11 11
14 15 15 18 17 17 17 18 16 16 16 17 18 18 19 19 20 19 20 19 18 19 18 17 17 16 16 16 14 14 14 14 13 13 13 12 12 12 12 12 12 12 11 11 11 11 11 11 10
14 15 17 17 16 17 17 17 17 15 15 16 17 18 17 18 17 19 19 18 18 18 18 18 17 16 16 16 15 14 14 14 13 13 12 12 12 12 12 12 11 11 11 11 10 10 10 9 9
14 14 17 15 15 17 15 17 16 15 15 16 17 18 18 17 18 18 19 18 18 18 18 17 17 17 17 15 15 14 14 14 13 12 12 12 12 12 12 11 11 11 10 10 10 9 9 9 8
14 14 15 17 15 15 15 17 17 17 16 16 17 18 18 19 20 19 19 18 18 18 18 18 17 16 17 15 14 14 14 13 13 13 12 12 12 11 11 11 11 10 10 10 9 9 8 8 8
14 15 15 14 15 17 15 17 16 16 17 16 16 17 18 19 20 20 19 19 19 18 17 18 17 17 15 15 14 14 14 14 13 13 12 12 11 11 11 11 10 10 10 9 9 8 8 7 7
15 14 14 13 14 15 15 17 17 14 16 17 15 15 17 18 18 18 19 18 18 17 17 17 16 15 15 15 14 14 13 13 13 12 12 12 11 11 11 11 10 10 9 9 8 8 7 7 6
12 12 12 11 13 15 15 16 17 16 17 15 13 14 15 16 17 17 18 17 16 16 15 15 15 15 15 14 14 13 13 12 12 12 12 11 11 11 11 10 10 9 9 8 8 7 6 5 5
12 14 12 13 14 15 13 14 18 15 14 14 14 13 14 15 16 17 17 16 15 15 14 15 15 15 14 14 13 13 12 12 12 12 11 11 10 10 10 9 9 8 7 7 6 5 5 5 4
12 13 11 13 14 15 12 15 17 13 11 10 12 13 14 15 16 16 16 15 14 14 14 14 14 14 14 13 13 12 12 11 11 11 10 10 9 9 8 8 7 6 6 5 5 5 4 4 3
12 12 13 13 12 14 14 15 15 11 11 10 10 11 12 13 14 14 14 14 13 14 14 14 14 14 13 12 12 11 11 10 10 10 9 9 8 8 7 6 5 5 5 4 4 3 3 3 3
12 13 14 13 15 15 14 14 17 13 12 10 10 10 11 12 12 12 13 12 13 13 14 13 13 13 12 11 11 10 10 10 9 9 8 8 7 6 5 5 4 4 3 3 3 3 2 2 2
14 13 12 13 13 14 15 17 14 14 12 11 10 10 11 11 11 11 12 12 12 13 13 12 12 11 11 10 10 10 9 9 8 8 7 6 5 5 4 4 3 3 3 2 2 2 2 1 1
13 14 13 14 13 11 12 16 13 12 11 11 10 10 10 10 11 11 11 12 12 12 11 11 11 10 10 10 9 9 9 8 7 6 5 5 4 3 3 3 2 2 2 2 1 1 1 0 0

GFSSGP_850_temp_093.txt.gz
Temp
21 20 20 21 24 26 27 29 30 28 29 29 28 28 29 28 27 25 18 19 18 18 16 18 18 17 17 17 17 17 17 17 17 16 16 16 17 17 16 17 16 16 16 16 16 16 16 16 16
19 20 20 23 25 26 28 30 29 29 29 28 27 27 28 27 23 19 19 19 18 18 17 16 18 18 18 17 18 17 18 18 18 17 17 17 17 17 17 16 16 16 17 17 16 16 15 16 15
19 20 22 25 26 26 28 30 30 29 27 27 27 26 27 25 22 20 20 19 19 18 18 16 17 18 18 18 18 18 18 18 18 18 17 17 17 17 17 17 17 17 17 17 16 16 15 15 15
20 21 23 25 26 28 29 30 29 28 27 27 28 28 25 22 22 21 19 19 19 18 17 17 17 18 18 18 18 17 17 17 17 17 16 17 16 16 15 15 16 15 16 16 16 16 16 15 15
21 23 24 25 26 28 30 30 28 28 28 27 27 27 25 22 21 20 19 19 19 18 17 17 17 18 18 17 17 17 17 16 16 15 14 14 14 14 14 15 15 15 15 15 15 15 15 15 15
22 23 24 25 27 29 30 29 28 28 28 28 27 27 24 21 20 20 19 19 19 18 16 17 18 17 17 17 17 16 16 15 15 15 15 15 15 15 15 15 14 14 14 14 14 15 15 15 15
22 24 24 26 27 28 29 29 28 28 28 28 28 28 24 21 20 20 20 20 19 18 17 16 16 17 17 17 16 15 15 15 15 15 15 14 14 14 14 14 14 14 14 14 14 14 14 14 14
22 24 24 25 26 27 29 28 27 28 28 28 27 28 24 22 20 20 20 19 19 18 18 17 16 15 16 16 16 15 15 15 15 15 15 14 14 14 13 14 14 14 14 14 14 14 14 14 14
20 22 23 25 26 27 28 27 27 27 27 26 26 27 26 22 20 20 20 20 19 19 19 18 17 16 16 15 15 15 15 15 15 15 14 14 12 12 13 14 14 14 14 14 14 14 14 14 14
21 22 23 26 27 27 27 27 27 25 26 26 26 24 24 21 21 20 20 20 19 19 19 19 18 18 16 16 15 14 15 14 14 13 13 14 13 13 13 14 14 14 14 14 14 14 14 13 13
22 22 24 25 25 25 26 27 26 25 26 26 26 24 23 21 21 21 21 20 20 19 19 19 19 18 18 18 16 15 16 15 14 14 14 14 13 12 12 14 14 14 13 12 13 14 14 12 12
21 23 23 24 24 24 25 25 26 26 27 26 25 25 23 22 21 21 21 21 20 20 19 19 18 18 17 18 16 16 15 15 14 14 14 13 13 13 12 12 13 12 12 12 12 12 12 12 12
21 23 22 23 23 23 24 24 25 26 25 23 22 24 23 22 22 22 21 21 20 20 19 19 18 18 17 17 16 15 15 15 14 14 13 13 13 13 12 12 12 12 12 12 12 12 12 12 13
21 21 21 22 23 23 23 24 24 25 25 23 22 23 23 22 22 22 21 21 20 20 19 18 17 18 16 16 15 15 14 14 14 14 14 13 13 13 12 12 12 12 12 12 12 12 12 12 12
20 19 21 21 22 22 23 23 24 24 25 24 23 23 23 22 22 22 21 21 21 20 19 18 16 17 16 15 15 15 14 13 14 14 14 14 13 12 12 12 12 12 12 12 12 12 12 12 12
19 20 20 22 22 22 22 21 24 24 25 24 23 23 23 23 22 21 21 21 21 20 19 18 16 15 16 15 16 15 14 14 14 14 14 14 14 12 12 12 11 12 13 12 11 11 11 11 11
20 19 21 22 24 23 22 21 24 25 25 24 24 22 23 21 21 20 20 20 21 20 19 18 15 17 15 16 16 15 14 14 14 14 14 14 13 13 12 11 11 12 12 11 11 11 11 11 11
19 20 21 21 23 23 22 22 23 24 24 24 24 23 23 21 20 19 20 19 20 20 18 16 16 15 16 16 15 15 14 13 13 13 13 13 13 13 11 11 11 11 11 10 10 10 10 11 10
18 18 18 20 22 22 22 22 23 24 22 23 24 23 22 22 21 21 20 20 19 18 16 16 17 16 17 16 15 15 14 13 13 14 13 12 12 13 12 11 11 11 10 10 11 11 10 10 10
17 17 18 19 21 22 22 22 23 24 22 22 23 23 22 23 22 21 20 19 17 20 19 15 15 17 17 16 15 15 14 13 13 13 13 12 11 12 11 11 11 10 11 11 11 10 10 10 9
17 17 17 18 20 21 21 22 23 24 23 22 22 22 22 22 22 20 18 18 18 18 16 15 16 17 17 16 15 13 12 13 13 13 12 12 11 11 12 11 10 10 10 10 9 9 9 9 9
16 18 18 17 18 17 21 18 22 24 23 23 22 22 22 21 21 21 20 18 18 17 15 15 16 16 17 16 14 13 14 14 13 13 12 13 12 12 12 11 10 10 10 9 9 9 8 8 8
17 18 17 18 17 18 17 19 23 24 23 23 23 22 21 20 18 19 20 20 18 16 15 15 14 13 15 14 14 14 13 13 12 12 12 11 12 11 11 11 10 9 9 9 9 8 8 7 7
18 17 17 17 17 14 12 15 22 23 24 24 24 22 21 18 17 17 17 17 16 15 15 14 13 12 12 12 12 12 13 12 12 12 11 11 11 12 11 11 10 10 9 9 8 8 8 7 7
17 16 10 11 12 15 15 13 17 21 25 24 25 24 22 19 18 17 16 15 14 14 13 13 12 11 11 11 12 12 13 12 12 12 12 11 10 9 10 11 10 9 9 9 8 7 6 5 5
16 16 11 12 14 14 18 17 19 20 20 19 20 21 19 18 17 16 15 15 13 12 12 12 12 11 11 11 12 13 13 12 12 11 11 11 10 9 9 10 9 8 7 7 6 5 5 4 4
16 13 11 9 10 11 17 21 21 21 19 20 19 18 17 16 16 15 14 13 13 12 11 11 11 11 11 13 13 12 12 12 11 11 11 10 9 9 9 8 7 6 6 5 5 4 4 4 4
15 13 12 11 13 14 18 17 19 21 20 19 18 17 15 14 14 14 14 13 13 11 11 10 10 12 13 13 12 11 10 11 11 10 10 9 8 8 7 7 6 6 4 4 4 3 3 3 3
16 15 15 15 16 13 17 18 20 19 20 19 19 16 15 14 13 13 12 12 11 10 10 11 12 12 12 11 11 10 10 10 9 8 8 7 7 6 6 5 5 4 3 3 3 3 3 3 2
17 16 18 13 13 17 14 18 21 20 19 19 16 14 13 13 12 12 11 11 11 10 10 11 11 11 11 9 9 9 10 9 8 7 6 6 5 5 5 4 3 3 3 3 2 2 2 2 2

GFSSGP_850_temp_096.txt.gz
Temp
21 21 20 21 20 21 23 25 29 28 29 29 29 29 27 25 24 20 19 20 18 17 18 18 18 17 17 18 17 17 17 17 17 16 16 16 16 16 16 16 16 16 16 16 16 16 15 16 16
21 20 20 21 20 22 24 27 28 28 28 28 28 28 28 24 21 19 20 19 18 17 18 18 18 18 17 18 18 18 17 17 17 17 17 17 17 16 16 16 17 17 17 17 16 16 15 15 15
20 20 21 21 22 22 24 27 29 29 28 28 28 27 27 23 20 20 19 19 18 17 16 18 18 18 18 18 18 18 18 18 18 18 17 17 17 17 17 17 17 17 17 17 16 16 15 15 15
20 20 21 21 23 25 25 28 28 28 28 28 28 26 24 23 22 20 19 19 19 18 17 17 18 18 18 18 18 18 17 17 17 17 17 17 15 14 16 15 16 16 16 16 16 16 15 15 15
20 21 19 22 23 25 27 28 28 27 28 28 28 25 23 23 22 20 19 19 19 18 17 17 18 18 18 18 17 17 17 17 16 15 14 14 14 15 15 15 15 15 15 15 15 15 15 15 15
20 22 20 21 23 26 28 29 23 24 28 28 28 25 23 22 20 20 20 19 19 18 17 18 18 18 18 17 17 17 16 15 15 15 14 15 15 15 15 15 15 15 15 15 15 15 15 14 14
20 20 21 22 23 25 27 28 27 27 28 28 28 24 22 21 20 20 20 19 19 17 17 18 18 18 17 17 16 16 15 15 15 15 15 15 15 14 14 14 14 14 14 14 14 14 14 14 14
20 20 20 21 23 24 27 23 24 22 26 27 27 24 22 22 20 20 20 20 19 17 16 18 18 17 17 16 16 15 15 15 15 15 15 14 14 14 14 14 14 14 14 14 14 14 14 14 14
20 19 19 21 22 24 27 27 21 23 23 25 26 26 24 21 20 20 20 20 19 18 17 16 17 17 16 16 15 15 15 15 15 15 14 14 14 14 14 14 14 14 14 14 14 14 14 14 14
19 18 19 23 24 25 26 26 24 18 21 26 25 25 23 21 21 20 20 20 19 19 18 17 16 16 16 16 15 15 15 15 15 15 14 13 13 14 14 14 14 14 14 14 14 14 13 13 13
20 18 21 22 24 25 25 25 25 19 23 26 26 24 22 21 21 21 20 20 19 19 19 18 17 17 17 16 16 15 15 14 14 14 14 14 13 13 14 14 14 14 13 13 13 13 13 13 13
19 21 22 23 23 23 24 24 24 18 15 24 24 24 22 21 21 21 21 20 20 19 19 19 18 18 17 16 17 16 15 15 14 14 14 14 13 12 13 13 13 12 12 13 13 13 13 13 13
20 21 22 22 23 23 23 23 23 24 24 24 24 23 22 22 22 21 21 21 20 20 19 19 19 18 17 17 16 15 15 15 14 14 14 13 13 13 12 13 12 12 12 12 12 13 13 13 13
20 20 20 21 21 22 22 23 23 23 24 22 23 24 23 22 22 22 22 21 21 20 19 19 18 18 18 16 16 15 15 14 14 14 14 13 13 13 13 12 12 12 12 12 13 13 12 12 12
20 19 19 20 20 20 22 21 21 23 24 22 22 23 23 23 22 22 21 21 21 20 19 19 18 18 17 16 16 15 15 14 15 15 14 13 13 13 12 12 12 12 12 12 12 12 12 12 12
18 18 17 20 20 21 21 19 21 23 23 24 22 22 23 23 23 22 22 20 21 20 19 19 18 17 17 17 16 15 15 15 15 15 15 15 14 13 12 12 12 12 12 12 12 12 11 11 12
18 17 18 20 22 21 20 19 21 22 23 23 24 23 23 23 23 23 21 21 20 20 19 19 18 17 16 16 16 15 15 15 15 14 14 14 14 13 13 12 12 12 12 12 12 12 12 12 11
18 17 18 18 20 21 20 19 21 23 23 23 24 23 23 24 23 22 21 20 19 19 20 19 18 17 17 17 16 15 14 14 14 14 14 14 14 13 12 12 12 12 12 12 12 11 11 11 11
18 17 17 18 19 19 19 20 21 22 23 22 23 24 23 23 22 21 21 20 19 19 18 19 18 18 17 16 15 14 14 14 14 14 14 13 13 13 12 12 11 11 11 11 11 11 11 11 10
17 17 16 17 19 19 18 19 21 22 21 22 23 23 22 22 22 20 20 19 19 18 16 19 18 17 17 16 16 15 13 14 14 14 13 13 13 13 12 12 11 12 12 11 11 11 11 10 9
16 16 16 17 18 18 18 17 19 22 23 22 22 22 23 22 22 21 19 19 19 18 19 19 18 17 17 16 16 14 13 13 13 13 13 13 12 12 12 12 12 11 11 11 10 10 10 10 10
14 17 17 16 15 14 18 15 18 20 21 22 22 22 22 22 22 21 21 20 19 19 18 17 16 16 16 16 15 14 14 14 13 14 14 13 12 12 12 12 11 10 10 10 10 9 9 9 9
15 14 14 15 15 15 15 14 17 18 20 21 20 22 21 21 20 21 20 19 18 17 17 16 16 17 17 16 14 14 13 13 13 13 13 13 12 12 12 11 10 10 10 10 9 9 9 8 8
17 14 13 13 14 12 15 14 13 17 20 21 20 22 22 21 20 19 19 19 18 18 17 16 15 15 15 15 12 13 13 13 13 13 13 12 11 11 10 10 10 10 9 9 9 9 9 8 7
15 12 9 10 12 12 13 12 13 15 16 19 18 18 21 19 19 18 18 18 17 17 16 15 14 13 12 11 12 12 13 13 13 12 12 11 11 11 11 10 10 9 9 9 8 8 8 7 7
15 12 10 10 12 11 11 11 12 12 14 19 18 21 19 18 17 17 17 16 16 16 15 14 13 12 12 12 12 12 12 12 12 12 12 11 11 10 10 10 9 8 8 8 8 7 7 6 5
15 12 10 9 9 11 10 12 13 14 18 17 16 16 17 17 16 16 15 14 14 14 14 13 12 12 11 11 11 12 12 12 12 12 11 11 10 10 9 9 9 8 7 7 7 6 6 5 4
15 12 11 9 11 11 14 16 16 17 17 17 15 15 15 15 15 14 14 13 12 12 12 12 11 11 11 11 11 12 12 12 11 11 11 10 10 9 9 8 8 7 7 6 5 4 4 3 3
15 15 13 11 11 12 14 15 18 17 17 16 14 15 14 14 14 13 13 12 12 11 11 11 11 11 11 10 11 11 11 10 10 10 9 9 8 9 8 7 7 6 5 4 4 3 3 3 3
17 16 17 12 12 10 11 14 17 17 16 15 15 14 14 13 13 12 12 11 11 10 11 10 10 10 10 11 10 10 9 9 9 8 8 8 7 7 7 6 5 5 4 3 3 2 2 2 2

GFSSGP_850_temp_102.txt.gz
Temp
20 19 19 19 17 16 17 19 21 22 23 26 27 26 23 21 22 20 19 19 18 18 18 17 17 16 16 17 16 16 16 16 16 16 16 17 17 17 17 16 17 17 16 15 15 16 15 15 15
20 19 19 19 16 16 17 19 21 21 25 25 25 23 22 19 20 19 18 18 18 18 17 17 16 16 16 17 16 16 16 16 16 17 16 17 17 17 17 17 17 16 16 15 15 15 15 15 15
20 19 19 16 16 16 17 21 23 24 25 25 25 24 22 20 20 20 19 18 18 17 16 16 16 17 17 17 17 17 17 17 17 17 17 17 17 17 17 17 16 16 15 15 15 15 15 14 14
19 19 19 17 17 18 19 21 22 23 26 24 23 20 21 21 23 20 18 17 18 17 16 16 16 17 17 18 18 17 17 17 17 17 17 17 16 16 16 16 16 16 15 15 15 15 14 14 14
18 18 16 16 17 18 20 21 23 23 23 21 23 20 19 20 21 20 18 18 18 17 16 16 16 17 18 18 18 17 17 17 17 17 16 15 15 15 15 15 15 15 15 15 15 14 14 14 14
18 17 15 17 18 20 20 23 22 22 21 20 21 20 19 19 20 19 18 18 18 17 17 16 17 18 18 18 17 17 17 16 15 15 15 15 15 15 15 15 15 15 15 14 14 14 14 13 13
16 15 15 17 18 19 21 22 19 18 19 18 19 19 19 18 19 20 18 18 18 18 17 17 17 18 18 17 17 16 15 15 15 15 15 15 15 15 14 14 14 14 14 14 14 14 14 13 13
18 15 16 16 18 19 22 20 19 20 19 20 20 19 18 18 18 18 18 17 17 17 17 17 18 18 17 17 15 15 15 15 15 15 15 15 15 15 14 14 14 14 14 14 14 14 14 14 14
18 15 14 16 18 19 21 20 19 19 19 19 20 20 20 19 18 18 17 17 17 16 16 17 18 17 17 15 15 15 15 15 15 15 15 15 15 14 14 14 14 14 14 14 14 14 14 15 15
16 13 16 18 19 19 20 21 20 19 18 18 20 20 19 19 18 18 17 17 17 17 16 18 17 17 16 15 15 15 15 15 15 16 15 15 15 14 14 14 14 14 14 14 14 14 14 14 14
17 15 17 18 19 19 20 20 21 18 16 18 20 21 19 19 17 18 17 17 18 18 17 17 17 16 16 15 15 15 15 15 15 15 15 15 14 14 14 15 14 14 13 13 13 13 14 14 14
15 17 18 18 19 19 18 20 20 20 21 22 20 21 20 20 18 16 18 17 18 17 18 18 17 16 16 16 16 16 15 15 15 15 15 14 14 14 14 14 14 13 13 13 13 13 13 13 14
15 16 17 18 18 18 19 19 19 20 21 21 20 19 19 17 17 15 16 18 18 18 17 18 17 17 16 16 16 15 15 15 15 15 15 15 14 15 14 14 13 13 13 13 13 13 13 13 13
16 16 16 17 17 18 18 18 19 20 21 20 20 18 18 18 18 17 16 18 18 18 17 17 17 17 16 16 16 16 16 15 15 16 15 14 14 15 14 14 13 13 13 13 13 13 13 13 12
16 14 14 16 17 17 18 17 17 20 21 21 19 19 18 18 18 18 19 17 18 18 18 17 17 17 16 16 16 16 16 16 15 15 14 14 14 14 14 14 13 13 13 13 13 12 12 12 12
14 14 12 15 16 18 17 14 16 20 20 19 19 20 19 19 18 18 17 18 18 19 18 17 17 17 16 16 16 16 16 16 15 15 14 14 14 14 14 14 13 13 13 12 12 12 12 12 12
12 12 13 14 16 16 16 15 16 19 19 19 20 19 18 20 18 18 18 18 18 18 18 18 17 17 16 16 16 16 15 15 15 15 15 14 14 13 13 13 13 13 13 12 12 12 12 12 12
12 12 13 13 15 15 14 13 14 18 18 18 19 20 19 19 20 20 19 19 18 18 18 17 17 17 17 17 16 16 15 14 15 15 14 14 14 13 13 13 13 13 13 12 12 12 12 12 12
13 13 12 13 14 14 14 14 14 16 16 16 18 19 20 20 21 19 18 18 18 18 17 18 18 17 17 17 15 15 15 15 15 14 14 13 14 13 13 13 13 13 12 12 12 12 12 11 11
13 12 12 13 14 14 13 14 14 14 15 17 18 19 19 21 20 18 18 18 17 18 17 18 18 18 16 15 16 16 16 16 15 13 13 13 14 13 13 13 13 13 12 12 12 12 11 11 11
13 12 12 13 13 13 13 13 13 14 15 17 18 18 20 21 20 19 18 17 17 18 18 18 18 17 16 17 17 15 15 14 13 13 12 13 13 13 13 13 12 12 12 12 12 11 11 11 10
12 14 14 13 12 11 13 11 12 13 13 14 15 15 17 20 18 19 17 16 17 18 18 18 18 17 17 17 17 17 16 15 15 14 13 12 13 13 12 12 12 12 12 11 11 11 11 11 10
13 14 13 13 12 10 11 9 11 12 13 12 12 14 16 17 18 18 15 16 17 16 16 18 18 17 17 16 16 16 16 14 14 13 12 11 12 12 12 12 11 11 11 11 11 10 10 10 10
15 13 11 11 11 9 10 10 10 9 10 10 12 13 16 16 16 17 17 18 18 17 17 17 17 17 16 15 16 16 15 13 12 12 11 11 12 12 11 11 11 11 11 11 10 10 9 9 9
13 10 9 8 9 10 8 9 9 10 10 10 10 12 14 14 15 17 18 17 17 17 16 18 18 16 14 14 14 14 13 13 12 11 11 11 12 11 11 11 11 11 10 10 10 9 9 8 8
12 11 9 8 10 9 9 9 10 10 11 10 10 11 13 14 14 15 16 17 17 15 16 16 16 15 14 13 13 13 12 10 10 11 11 11 12 11 11 11 11 10 10 9 9 8 8 8 7
13 10 8 8 8 8 10 11 11 12 11 10 10 10 10 12 12 12 13 16 17 17 17 17 16 13 14 13 12 11 10 10 11 11 11 11 11 11 11 10 10 10 9 9 9 8 7 7 6
13 9 10 9 10 8 11 12 12 12 10 9 10 10 10 11 12 12 12 12 14 14 16 13 13 12 12 12 11 11 11 11 11 12 11 11 11 10 10 10 9 9 8 8 8 7 6 5 5
12 11 11 10 10 10 9 11 12 11 11 10 9 9 9 10 12 13 12 12 13 12 12 12 12 12 11 11 11 11 11 11 11 11 11 10 10 10 9 8 8 8 7 7 6 5 4 4 3
14 14 12 10 10 11 10 10 10 10 10 10 10 9 9 10 11 11 11 11 11 11 11 11 12 11 10 10 11 11 11 11 11 10 9 9 9 8 8 8 7 6 6 5 5 4 3 3 2

GFSSGP_850_temp_105.txt.gz
Temp
19 19 19 19 17 15 16 18 19 20 22 25 25 24 23 22 21 19 20 20 19 19 18 17 17 17 17 17 17 16 16 16 16 16 15 16 17 17 17 17 17 16 15 15 14 15 15 15 14
19 18 18 18 16 16 16 18 20 22 23 24 24 22 22 20 20 20 19 19 19 18 18 17 16 16 16 16 16 16 16 16 16 15 16 17 17 17 17 17 16 15 15 15 15 15 15 15 14
18 18 18 16 15 16 17 19 21 22 23 24 23 22 21 19 20 21 20 19 18 18 17 17 16 16 15 16 15 15 16 16 16 16 17 17 17 17 17 16 16 15 15 15 15 15 15 14 14
18 18 18 16 16 16 18 20 20 22 23 23 23 20 20 19 20 20 19 18 17 17 17 17 16 15 16 15 16 16 16 16 16 17 17 17 17 16 16 16 15 15 15 15 14 14 14 14 14
18 17 15 16 16 18 18 20 22 22 22 21 22 19 19 19 19 19 18 18 17 17 16 16 16 17 17 17 17 17 17 17 17 17 16 14 15 15 14 14 15 14 14 14 14 14 13 14 14
17 16 16 16 17 20 20 21 22 21 19 20 21 19 19 19 19 19 17 17 17 16 16 16 16 17 18 18 18 17 17 17 16 15 14 14 15 15 15 15 15 15 14 14 14 14 13 13 13
15 14 14 16 17 19 21 20 20 19 19 20 21 19 18 18 18 18 17 17 16 15 15 15 16 17 18 18 17 17 16 16 15 15 15 15 15 15 14 14 14 14 14 14 13 13 13 13 13
17 14 15 15 17 17 20 20 19 19 19 20 19 18 16 17 18 17 17 16 16 16 16 16 17 17 17 17 16 16 15 15 15 15 15 15 14 14 14 14 14 14 14 13 13 13 14 14 14
17 14 13 15 17 18 20 19 19 20 19 19 19 19 19 19 17 17 17 16 16 16 17 17 17 18 17 16 15 15 15 15 15 15 15 15 14 14 14 14 14 13 14 14 14 14 14 14 14
15 12 15 16 18 18 19 19 20 19 18 18 18 19 19 19 18 17 17 16 15 16 16 16 17 17 16 15 15 15 15 15 15 15 15 15 14 14 14 13 13 13 14 14 14 14 14 14 14
15 13 16 17 18 19 18 18 19 18 16 19 20 19 18 19 18 17 17 17 17 16 16 16 17 17 16 15 15 15 15 15 15 15 15 15 15 14 14 14 14 14 13 14 14 14 14 14 14
14 16 16 16 18 17 17 19 19 19 20 21 21 19 19 18 17 18 17 17 17 16 16 16 16 16 15 15 15 15 15 15 15 15 15 15 15 15 14 14 14 14 13 14 14 14 14 14 14
13 15 16 17 17 17 18 17 18 19 20 21 21 19 19 17 17 17 18 17 17 16 17 17 16 15 15 15 15 16 16 16 15 15 15 14 14 14 14 14 13 13 13 13 13 13 13 13 13
15 15 14 16 17 16 16 16 18 19 20 19 20 19 19 18 17 16 17 18 18 17 17 17 16 16 16 16 16 16 16 16 15 15 15 14 14 14 14 14 13 13 13 13 13 13 13 13 13
15 13 13 15 16 15 16 15 16 19 19 20 19 19 18 18 16 18 18 19 20 18 18 18 17 16 16 16 16 16 17 16 16 15 14 14 14 14 14 13 13 13 13 13 13 13 13 13 12
13 13 12 14 15 17 17 13 16 18 18 18 18 17 17 16 18 18 19 20 20 17 17 18 17 16 16 16 16 16 16 16 16 15 15 14 14 14 14 13 13 13 13 13 12 12 12 12 12
11 11 12 13 15 14 16 13 15 18 17 17 18 18 18 16 16 17 19 18 18 18 17 18 17 16 16 16 16 16 16 16 16 15 15 15 14 14 13 13 13 13 12 12 12 12 12 12 11
11 11 11 11 13 14 13 12 13 16 16 16 17 18 18 16 18 18 18 18 18 16 17 17 16 16 17 16 15 16 15 15 14 15 15 14 14 14 13 13 13 13 12 12 12 12 12 12 11
12 11 11 12 13 13 12 12 12 14 15 15 17 18 18 18 19 18 17 17 16 15 16 16 16 16 16 17 15 15 14 14 14 14 15 14 14 14 13 13 13 12 12 12 12 12 12 12 12
12 12 12 12 13 13 12 12 12 13 14 16 16 17 18 18 19 17 17 17 16 16 16 15 15 16 17 16 15 15 14 14 13 13 14 14 14 14 13 13 13 12 12 12 12 12 12 11 11
13 12 11 12 13 12 11 11 12 13 14 15 16 15 16 17 19 18 17 17 16 16 16 15 16 16 16 16 15 15 14 13 13 12 12 12 13 14 13 13 12 12 12 12 12 12 11 11 11
11 14 14 13 12 11 11 10 11 12 12 12 12 13 14 16 19 17 18 17 16 16 15 14 13 15 16 16 16 14 14 13 12 12 12 12 12 13 12 12 12 12 12 12 12 11 11 11 10
13 13 12 11 10 9 10 9 8 9 10 9 10 11 13 15 17 19 18 17 16 15 15 15 14 13 13 15 14 14 14 13 13 12 11 12 10 12 12 12 11 12 11 11 11 11 10 10 10
13 12 10 9 9 8 8 9 8 9 10 10 9 9 12 16 14 16 17 15 16 17 18 17 16 16 13 13 13 13 12 13 12 11 12 11 12 11 11 11 11 11 11 11 10 10 10 10 9
11 9 9 7 7 10 8 9 8 8 9 10 8 9 11 13 14 14 15 15 16 17 17 17 15 14 14 13 12 12 12 12 10 12 12 11 11 10 11 11 11 11 10 10 10 10 9 9 8
11 10 10 8 8 9 9 9 10 11 10 10 9 9 10 11 12 13 14 16 13 15 14 15 16 12 13 12 12 11 12 11 10 11 11 10 10 10 10 10 10 10 10 10 9 9 9 8 7
12 9 9 8 8 8 9 12 10 12 11 10 9 9 9 10 11 12 15 15 16 13 13 14 13 13 12 12 12 13 12 10 11 10 10 10 10 10 10 10 10 10 10 9 9 8 8 7 7
12 8 10 8 10 10 9 10 11 11 11 10 10 8 9 10 11 12 12 12 13 13 14 14 13 12 12 12 11 11 10 10 10 10 10 10 10 10 10 10 10 9 9 8 8 7 7 6 6
10 10 10 9 10 10 8 10 11 10 10 9 8 8 9 9 10 11 11 11 12 13 12 12 12 12 11 11 11 11 11 11 11 10 10 10 10 10 10 9 9 8 8 7 7 6 6 5 4
12 13 10 9 9 10 10 9 9 8 9 9 8 8 8 10 10 10 11 11 11 11 11 11 12 11 11 11 11 11 11 11 10 10 10 10 9 9 8 8 7 7 7 6 6 5 4 4 3

GFSSGP_850_temp_108.txt.gz
Temp
19 19 18 19 16 15 16 17 18 20 21 23 23 22 21 20 20 19 20 20 20 19 19 18 17 17 17 17 17 17 16 16 16 16 15 16 17 17 17 17 15 15 16 15 15 15 15 15 15
19 18 18 18 15 15 15 17 18 21 22 22 22 22 21 20 19 19 18 19 19 19 18 17 17 17 17 17 17 17 16 16 16 15 17 17 17 17 17 17 15 14 15 15 15 15 15 14 15
18 18 18 15 14 15 16 18 18 21 22 23 22 21 20 19 19 19 18 19 18 18 18 17 17 17 17 17 16 16 16 16 15 16 17 17 17 17 17 16 15 15 15 15 15 14 14 14 14
17 17 17 16 15 16 17 19 19 20 22 22 22 20 19 19 19 19 18 18 17 17 17 17 17 17 16 16 16 16 15 16 17 17 17 17 17 16 16 15 15 14 14 15 14 14 14 14 14
17 17 15 16 15 17 18 19 20 19 21 21 21 20 18 18 19 19 18 17 17 16 16 16 16 16 16 16 16 14 15 17 17 17 14 15 14 14 15 14 15 14 14 14 14 14 14 14 14
16 16 16 16 16 18 19 21 21 21 19 20 20 19 18 18 19 18 18 17 17 16 16 16 16 16 16 16 16 17 17 17 17 16 14 13 14 14 14 14 14 15 14 14 14 13 13 13 14
14 13 14 15 16 18 20 20 19 18 18 19 18 18 16 17 17 18 17 16 16 16 16 16 16 17 17 17 17 17 17 17 15 15 14 13 14 14 14 15 15 14 14 14 13 13 13 13 14
17 13 14 14 16 17 20 20 19 19 18 19 19 17 16 17 18 17 17 16 16 16 15 15 16 17 17 17 17 17 17 15 15 15 14 13 14 14 14 14 14 14 14 13 13 14 14 14 15
16 13 12 15 16 18 19 19 19 19 19 19 18 19 20 18 17 16 16 15 15 15 15 15 16 17 17 17 17 16 14 14 14 14 14 14 15 14 14 14 14 13 14 14 14 14 14 15 15
14 11 13 15 17 16 17 18 19 19 19 19 18 18 18 17 17 17 16 15 15 15 15 15 15 17 17 16 15 15 15 14 15 15 15 14 14 14 13 13 13 13 14 14 14 14 14 14 14
14 12 14 16 17 17 17 17 18 18 16 19 19 19 18 18 16 17 17 17 18 17 16 16 16 16 16 15 14 15 14 15 14 14 15 15 14 14 14 14 14 14 14 14 14 14 14 14 14
14 15 15 16 17 16 16 18 17 18 19 20 21 19 19 17 17 17 16 17 17 17 17 16 16 16 16 15 15 15 14 15 14 15 15 15 14 14 14 14 14 14 14 14 14 14 13 13 13
13 14 16 16 16 15 16 15 16 18 19 20 20 19 18 18 18 17 17 17 17 17 17 16 16 16 15 15 15 15 15 15 15 15 14 14 14 14 14 14 14 14 13 14 13 13 13 13 13
14 14 14 15 16 15 15 15 16 18 19 19 19 19 18 18 18 16 16 17 17 17 18 18 17 17 15 15 15 15 15 15 15 14 14 14 14 14 14 14 13 13 13 13 13 13 13 13 13
14 12 12 14 15 14 15 14 15 17 18 18 18 17 16 17 17 17 18 17 17 18 18 19 17 17 16 14 15 15 15 15 15 15 14 14 14 14 14 14 13 13 13 13 13 13 13 13 13
13 12 11 13 13 16 16 12 14 17 16 17 18 18 16 16 17 17 17 18 18 18 17 18 18 17 16 15 15 15 15 15 15 15 14 14 14 13 13 13 13 13 13 13 13 13 13 12 12
10 11 11 12 14 14 15 12 14 17 16 15 17 17 17 16 16 16 16 17 18 17 16 17 19 18 17 16 15 15 15 15 15 14 14 14 14 13 13 13 13 13 13 12 12 12 12 12 12
11 10 11 10 12 13 12 11 12 15 15 15 16 17 17 17 18 18 17 17 17 17 16 18 17 17 16 16 15 14 14 14 14 14 14 14 14 13 13 13 13 12 12 12 12 12 12 12 11
11 10 10 12 12 12 11 11 11 13 13 13 15 16 17 18 19 18 18 16 17 17 16 17 17 17 16 16 15 15 14 14 14 14 13 13 14 13 13 13 13 13 12 12 12 12 12 11 11
12 11 11 12 12 12 12 11 12 12 13 14 15 16 16 17 18 18 17 16 16 16 16 16 15 15 16 15 15 15 14 14 14 13 13 13 13 13 13 13 13 12 12 12 12 12 12 11 11
12 11 11 11 11 12 11 10 10 12 12 13 12 12 13 15 16 17 17 16 16 16 16 16 15 14 16 14 15 15 14 13 12 12 11 11 11 12 12 12 12 12 12 12 12 11 11 11 11
11 13 12 11 9 9 10 8 9 9 10 10 10 10 11 14 16 17 17 18 17 17 16 15 15 15 16 16 14 14 14 13 12 12 10 9 9 10 12 12 12 12 12 11 11 11 11 11 10
12 12 11 10 9 9 9 8 8 8 9 10 10 9 10 12 17 19 18 19 20 17 17 16 14 15 16 16 15 14 13 13 13 10 10 10 10 11 11 11 12 11 11 11 11 11 11 10 10
12 11 9 8 8 9 9 8 8 9 9 9 10 9 9 11 15 17 17 16 16 15 14 15 15 15 15 15 14 13 13 10 9 9 10 10 10 11 11 10 11 11 11 11 10 10 10 10 9
10 9 8 8 6 7 9 9 8 10 10 10 9 9 9 11 13 14 14 14 14 14 14 14 13 13 13 13 13 12 10 11 10 10 11 10 11 10 10 10 11 11 10 10 10 10 10 10 9
10 9 8 10 9 9 9 9 9 10 11 10 9 8 9 10 11 12 13 13 13 13 13 13 12 13 12 12 12 11 11 11 10 10 10 10 10 10 9 10 10 10 10 10 10 10 9 9 8
12 8 9 8 6 8 6 11 10 9 10 10 9 8 8 9 10 11 12 13 13 13 13 13 13 12 12 11 11 11 11 11 10 10 10 10 9 9 8 9 10 10 10 10 10 9 8 8 7
11 9 9 7 7 9 9 9 10 10 9 9 9 7 7 9 10 11 11 12 13 13 12 13 14 12 11 11 12 10 10 9 10 10 9 9 9 9 10 10 10 10 9 9 9 8 7 7 7
10 10 9 8 9 8 10 9 10 9 8 8 8 7 7 8 9 9 11 12 12 12 12 12 12 12 11 11 10 10 9 9 10 10 10 9 9 9 10 10 9 9 8 8 7 7 6 6 5
11 12 9 7 9 8 8 9 9 8 8 8 8 7 8 8 9 10 11 11 11 11 11 11 11 11 11 10 11 10 10 10 10 10 10 10 9 9 8 8 7 7 7 7 6 6 5 4 4

GFSSGP_850_temp_114.txt.gz
Temp
19 19 19 18 22 23 24 25 25 25 26 25 24 25 27 27 27 26 20 18 18 18 17 17 18 17 17 17 17 17 17 17 16 16 17 17 17 17 16 16 16 16 15 16 16 16 16 16 17
18 18 18 20 22 23 25 26 24 26 25 24 24 24 25 27 21 19 18 19 17 17 17 16 17 17 17 17 17 17 17 16 16 16 17 17 18 17 15 15 15 16 15 15 16 16 16 16 16
18 18 20 22 23 23 24 25 26 24 24 24 25 23 24 24 19 18 17 18 17 17 17 17 17 17 17 17 17 17 17 16 15 16 17 18 18 17 15 15 15 15 15 15 15 15 16 16 16
16 18 20 22 23 23 24 25 24 24 25 24 24 26 21 18 18 18 19 17 17 17 17 17 17 17 17 17 17 17 16 16 16 16 17 18 17 16 16 15 15 15 14 15 15 15 15 15 15
17 19 22 21 23 24 24 23 23 24 25 24 24 25 23 18 18 17 17 17 17 17 17 16 17 17 17 17 17 16 16 15 16 17 17 17 17 15 15 15 15 15 15 15 15 15 15 15 15
19 20 21 22 23 24 24 23 23 23 24 24 24 24 22 17 17 16 16 17 17 17 17 16 17 17 17 17 16 16 16 15 16 17 17 17 15 15 15 15 15 15 14 14 14 14 14 15 15
20 21 21 22 22 22 23 22 23 23 23 23 21 24 20 17 17 16 17 17 17 17 17 16 15 16 16 16 16 15 16 16 16 17 16 15 15 15 14 14 14 14 14 14 14 14 15 15 15
18 20 20 21 21 21 23 22 21 21 22 20 20 24 23 19 16 15 16 17 17 17 17 16 15 15 15 14 15 15 17 16 16 15 15 15 15 14 14 13 14 14 14 14 14 14 15 15 15
16 19 20 20 20 21 21 21 21 19 21 21 21 21 19 17 18 15 15 15 17 17 17 16 15 16 15 15 14 16 16 16 14 14 15 14 13 13 13 13 14 13 14 14 14 15 15 15 15
19 19 20 20 20 20 20 20 21 20 21 21 21 20 17 16 15 16 17 16 16 17 17 16 16 16 16 15 14 14 14 13 14 14 13 13 13 13 13 12 13 12 14 14 14 15 15 13 13
17 18 19 19 19 19 19 19 19 20 20 21 21 21 17 16 15 15 16 18 16 16 16 16 16 16 15 15 15 15 15 14 14 14 14 13 13 12 12 12 11 11 14 14 14 14 12 12 12
17 18 17 18 18 17 18 19 19 19 19 19 20 20 20 17 16 15 16 16 17 17 16 16 15 15 15 15 15 14 14 14 14 14 13 13 13 13 13 12 12 11 12 13 13 13 13 12 12
17 18 17 17 17 17 17 17 18 18 19 19 19 19 19 18 17 16 16 16 16 16 15 14 15 15 15 15 14 14 15 14 14 13 13 13 12 13 12 12 12 11 13 13 13 13 12 12 12
17 16 17 17 17 17 17 18 17 19 18 18 18 18 19 19 18 17 15 15 15 16 14 14 14 15 15 15 14 15 14 14 14 13 14 13 12 12 12 12 12 13 12 13 13 12 12 12 11
16 17 18 18 18 17 16 18 18 19 18 18 19 19 18 18 18 18 16 15 15 15 15 14 14 15 15 14 14 14 14 14 14 14 14 14 13 12 13 12 12 12 12 12 12 11 12 12 12
17 17 17 19 17 17 17 17 20 18 18 18 18 19 18 18 18 17 16 14 15 15 15 14 14 14 14 14 14 14 14 14 13 14 14 14 14 13 13 12 12 13 12 13 13 13 12 11 11
17 17 17 17 18 17 17 17 19 18 17 17 18 18 19 18 17 17 16 15 15 14 15 14 13 13 13 13 14 14 14 14 14 14 14 14 14 14 13 13 13 13 13 13 12 12 11 11 11
17 17 17 17 18 17 17 17 18 16 16 16 17 18 18 18 18 17 15 14 14 14 14 14 13 13 13 13 14 14 13 13 14 13 13 14 14 14 13 12 13 13 13 12 12 12 11 11 11
16 16 17 18 17 15 16 16 16 15 15 15 15 17 17 17 17 16 15 14 14 14 14 14 14 14 13 14 14 14 13 13 14 13 13 13 13 13 13 12 12 12 12 12 12 11 12 11 10
17 17 17 17 16 15 15 15 15 15 15 14 14 14 14 15 17 16 15 15 14 14 14 14 15 15 14 15 14 13 13 13 13 13 13 13 13 13 12 12 12 12 12 12 11 12 11 11 12
18 16 16 15 16 15 15 16 15 16 15 14 13 14 14 14 15 15 14 15 14 13 13 14 15 15 15 15 16 15 14 14 14 13 13 12 12 12 11 11 11 11 12 12 12 12 12 12 12
17 16 15 15 16 15 15 16 17 15 14 13 13 12 13 13 14 15 14 15 15 14 13 14 15 16 16 16 15 13 14 14 14 14 13 12 11 11 11 10 10 11 11 11 11 11 11 11 11
17 15 14 15 15 15 15 13 15 13 10 11 11 10 11 11 13 14 15 15 14 14 13 13 13 13 13 13 13 12 13 13 13 13 12 11 11 10 11 9 9 9 9 9 10 10 11 11 11
16 15 14 14 15 17 14 12 15 9 8 9 9 10 9 9 11 13 14 14 14 13 13 13 13 13 13 13 12 12 12 13 12 11 12 12 10 10 8 9 8 8 9 8 8 10 10 10 10
17 17 15 16 15 16 14 14 12 10 9 9 9 8 8 8 9 12 14 14 13 13 13 13 12 12 12 12 11 11 11 11 10 10 10 8 8 9 10 9 9 9 8 9 9 10 10 10 10
14 14 13 12 14 13 14 12 12 9 11 10 9 8 7 7 8 10 11 12 12 12 12 12 12 12 12 12 12 11 10 11 11 9 9 8 9 8 8 8 8 7 8 8 9 9 10 10 9
16 15 13 10 11 13 14 17 13 11 13 12 10 8 6 6 7 10 11 12 12 12 12 11 12 12 12 11 11 11 10 9 10 9 9 9 9 9 8 8 7 7 8 9 9 9 9 9 9
15 14 15 14 12 14 17 16 13 12 13 13 12 9 6 5 6 9 10 11 11 11 11 11 11 11 11 10 9 9 9 9 9 9 9 9 9 9 8 8 7 6 7 7 8 8 7 8 8
15 16 15 14 14 14 16 16 14 13 12 12 12 10 7 6 7 8 10 11 11 11 11 10 11 11 10 9 10 9 9 9 9 9 9 9 9 8 8 7 6 7 7 7 8 7 7 7 7
14 14 15 15 15 14 14 16 15 13 12 11 11 10 7 7 7 8 10 10 11 11 11 11 10 10 9 9 9 9 9 8 8 8 8 8 8 7 7 7 6 6 7 7 6 6 6 6 5